Time,TemperatureF,DewpointF,PressureIn,WindDirection,WindDirectionDegrees,WindSpeedMPH,WindSpeedGustMPH,Humidity,HourlyPrecipIn,Conditions,Clouds,dailyrainin,SoftwareType,DateUTC
2013-09-04 00:00:00,77.4,53.8,28.53,NE,45,0.0,2.0,44,0.00,,,0.00,meteohub,2013-09-04 05:00:00,
2013-09-04 00:05:00,77.4,54.3,28.53,NE,45,0.0,2.0,45,0.00,,,0.00,meteohub,2013-09-04 05:05:00,
2013-09-04 00:10:00,77.0,54.0,28.53,East,90,1.0,2.0,45,0.00,,,0.00,meteohub,2013-09-04 05:10:00,
2013-09-04 00:15:00,76.8,54.5,28.53,East,90,1.0,2.0,46,0.00,,,0.00,meteohub,2013-09-04 05:15:00,
2013-09-04 00:20:00,77.0,54.7,28.52,East,90,1.0,1.0,46,0.00,,,0.00,meteohub,2013-09-04 05:20:00,
2013-09-04 00:25:00,76.8,54.5,28.53,East,90,0.0,1.0,46,0.00,,,0.00,meteohub,2013-09-04 05:25:00,
2013-09-04 00:30:00,76.8,55.0,28.53,East,90,1.0,1.0,47,0.00,,,0.00,meteohub,2013-09-04 05:30:00,
2013-09-04 00:35:00,76.3,55.2,28.53,East,90,2.0,2.0,48,0.00,,,0.00,meteohub,2013-09-04 05:35:00,
2013-09-04 00:40:00,76.6,55.4,28.53,NE,45,0.0,8.0,48,0.00,,,0.00,meteohub,2013-09-04 05:40:00,
2013-09-04 00:45:00,76.5,55.9,28.53,WSW,248,1.0,8.0,49,0.00,,,0.00,meteohub,2013-09-04 05:45:00,
2013-09-04 00:50:00,76.3,55.8,28.53,East,90,1.0,8.0,49,0.00,,,0.00,meteohub,2013-09-04 05:50:00,
2013-09-04 00:55:00,76.3,55.8,28.53,NE,45,1.0,3.0,49,0.00,,,0.00,meteohub,2013-09-04 05:55:00,
2013-09-04 01:00:00,76.1,55.6,28.53,SE,135,1.0,3.0,49,0.00,,,0.00,meteohub,2013-09-04 06:00:00,
2013-09-04 01:05:00,75.9,55.9,28.53,East,90,1.0,3.0,50,0.00,,,0.00,meteohub,2013-09-04 06:05:00,
2013-09-04 01:10:00,75.7,56.3,28.53,East,90,0.0,2.0,51,0.00,,,0.00,meteohub,2013-09-04 06:10:00,
2013-09-04 01:15:00,75.2,55.8,28.54,East,90,1.0,2.0,51,0.00,,,0.00,meteohub,2013-09-04 06:15:00,
2013-09-04 01:20:00,75.4,55.9,28.53,NE,45,1.0,2.0,51,0.00,,,0.00,meteohub,2013-09-04 06:20:00,
2013-09-04 01:25:00,75.2,55.8,28.53,NE,45,0.0,1.0,51,0.00,,,0.00,meteohub,2013-09-04 06:25:00,
2013-09-04 01:30:00,75.0,56.1,28.54,East,90,1.0,1.0,52,0.00,,,0.00,meteohub,2013-09-04 06:30:00,
2013-09-04 01:35:00,74.7,55.9,28.53,SE,135,1.0,1.0,52,0.00,,,0.00,meteohub,2013-09-04 06:35:00,
2013-09-04 01:40:00,74.8,56.5,28.53,NE,45,1.0,1.0,53,0.00,,,0.00,meteohub,2013-09-04 06:40:00,
2013-09-04 01:45:00,74.8,56.5,28.54,SE,135,1.0,1.0,53,0.00,,,0.00,meteohub,2013-09-04 06:45:00,
2013-09-04 01:50:00,74.8,56.5,28.53,East,90,0.0,2.0,53,0.00,,,0.00,meteohub,2013-09-04 06:50:00,
2013-09-04 01:55:00,74.7,56.5,28.53,NE,45,1.0,2.0,53,0.00,,,0.00,meteohub,2013-09-04 06:55:00,
2013-09-04 02:00:00,74.5,56.7,28.54,NE,45,1.0,2.0,54,0.00,,,0.00,meteohub,2013-09-04 07:00:00,
2013-09-04 02:05:00,74.3,56.7,28.54,East,90,1.0,2.0,54,0.00,,,0.00,meteohub,2013-09-04 07:05:00,
2013-09-04 02:10:00,73.9,56.3,28.54,East,90,1.0,2.0,54,0.00,,,0.00,meteohub,2013-09-04 07:10:00,
2013-09-04 02:15:00,73.9,56.8,28.54,East,90,1.0,2.0,55,0.00,,,0.00,meteohub,2013-09-04 07:15:00,
2013-09-04 02:20:00,74.1,56.8,28.54,NE,45,2.0,5.0,55,0.00,,,0.00,meteohub,2013-09-04 07:20:00,
2013-09-04 02:25:00,74.3,57.0,28.54,SE,135,1.0,5.0,55,0.00,,,0.00,meteohub,2013-09-04 07:25:00,
2013-09-04 02:30:00,74.3,57.0,28.55,NE,45,1.0,5.0,55,0.00,,,0.00,meteohub,2013-09-04 07:30:00,
2013-09-04 02:35:00,73.9,57.2,28.54,NE,45,3.0,3.0,56,0.00,,,0.00,meteohub,2013-09-04 07:35:00,
2013-09-04 02:40:00,74.1,57.4,28.55,East,90,1.0,3.0,56,0.00,,,0.00,meteohub,2013-09-04 07:40:00,
2013-09-04 02:45:00,73.6,57.4,28.55,East,90,1.0,3.0,57,0.00,,,0.00,meteohub,2013-09-04 07:45:00,
2013-09-04 02:50:00,73.8,57.6,28.55,NE,45,1.0,3.0,57,0.00,,,0.00,meteohub,2013-09-04 07:50:00,
2013-09-04 02:55:00,73.4,57.2,28.55,NE,45,1.0,2.0,57,0.00,,,0.00,meteohub,2013-09-04 07:55:00,
2013-09-04 03:00:00,73.2,57.6,28.55,SE,135,1.0,4.0,58,0.00,,,0.00,meteohub,2013-09-04 08:00:00,
2013-09-04 03:05:00,72.9,57.2,28.54,East,90,3.0,4.0,58,0.00,,,0.00,meteohub,2013-09-04 08:05:00,
2013-09-04 03:10:00,72.9,57.2,28.55,East,90,1.0,4.0,58,0.00,,,0.00,meteohub,2013-09-04 08:10:00,
2013-09-04 03:15:00,72.5,57.4,28.54,North,0,1.0,3.0,59,0.00,,,0.00,meteohub,2013-09-04 08:15:00,
2013-09-04 03:20:00,72.3,57.2,28.54,East,90,1.0,3.0,59,0.00,,,0.00,meteohub,2013-09-04 08:20:00,
2013-09-04 03:25:00,72.0,57.4,28.55,East,90,0.0,4.0,60,0.00,,,0.00,meteohub,2013-09-04 08:25:00,
2013-09-04 03:30:00,71.8,57.6,28.55,North,0,1.0,4.0,61,0.00,,,0.00,meteohub,2013-09-04 08:30:00,
2013-09-04 03:36:00,71.8,57.6,28.55,NE,45,0.0,4.0,61,0.00,,,0.00,meteohub,2013-09-04 08:36:00,
2013-09-04 03:41:00,71.4,57.2,28.55,East,90,1.0,1.0,61,0.00,,,0.00,meteohub,2013-09-04 08:41:00,
2013-09-04 03:46:00,71.6,57.9,28.55,NE,45,1.0,1.0,62,0.00,,,0.00,meteohub,2013-09-04 08:46:00,
2013-09-04 03:50:00,71.4,58.1,28.55,NE,45,1.0,1.0,63,0.00,,,0.00,meteohub,2013-09-04 08:50:00,
2013-09-04 03:56:00,71.2,58.5,28.55,North,0,2.0,2.0,64,0.00,,,0.00,meteohub,2013-09-04 08:56:00,
2013-09-04 04:00:00,71.2,58.5,28.55,North,0,1.0,2.0,64,0.00,,,0.00,meteohub,2013-09-04 09:00:00,
2013-09-04 04:06:00,71.2,58.5,28.55,East,90,1.0,2.0,64,0.00,,,0.00,meteohub,2013-09-04 09:06:00,
2013-09-04 04:11:00,71.1,58.3,28.55,NE,45,0.0,2.0,64,0.00,,,0.00,meteohub,2013-09-04 09:11:00,
2013-09-04 04:16:00,71.1,58.3,28.55,East,90,0.0,1.0,64,0.00,,,0.00,meteohub,2013-09-04 09:16:00,
2013-09-04 04:21:00,70.9,58.1,28.56,NE,45,0.0,1.0,64,0.00,,,0.00,meteohub,2013-09-04 09:21:00,
2013-09-04 04:26:00,70.7,58.3,28.56,NE,45,1.0,1.0,65,0.00,,,0.00,meteohub,2013-09-04 09:26:00,
2013-09-04 04:31:00,70.5,58.1,28.56,West,270,1.0,1.0,65,0.00,,,0.00,meteohub,2013-09-04 09:31:00,
2013-09-04 04:36:00,70.5,58.6,28.56,NW,315,0.0,1.0,66,0.00,,,0.00,meteohub,2013-09-04 09:36:00,
2013-09-04 04:41:00,70.5,58.1,28.56,NW,315,0.0,1.0,65,0.00,,,0.00,meteohub,2013-09-04 09:41:00,
2013-09-04 04:46:00,69.8,57.6,28.56,NW,315,1.0,1.0,65,0.00,,,0.00,meteohub,2013-09-04 09:46:00,
2013-09-04 04:51:00,69.4,57.6,28.56,NW,315,0.0,1.0,66,0.00,,,0.00,meteohub,2013-09-04 09:51:00,
2013-09-04 04:56:00,69.1,57.7,28.56,North,0,0.0,1.0,67,0.00,,,0.00,meteohub,2013-09-04 09:56:00,
2013-09-04 05:01:00,69.1,58.1,28.56,North,0,0.0,1.0,68,0.00,,,0.00,meteohub,2013-09-04 10:01:00,
2013-09-04 05:06:00,68.5,57.6,28.56,North,0,0.0,1.0,68,0.00,,,0.00,meteohub,2013-09-04 10:06:00,
2013-09-04 05:11:00,68.5,57.6,28.56,North,0,0.0,1.0,68,0.00,,,0.00,meteohub,2013-09-04 10:11:00,
2013-09-04 05:16:00,68.4,57.4,28.56,North,0,0.0,0.0,68,0.00,,,0.00,meteohub,2013-09-04 10:16:00,
2013-09-04 05:21:00,68.5,57.6,28.56,North,0,0.0,0.0,68,0.00,,,0.00,meteohub,2013-09-04 10:21:00,
2013-09-04 05:26:00,68.0,57.0,28.56,North,0,0.0,0.0,68,0.00,,,0.00,meteohub,2013-09-04 10:26:00,
2013-09-04 05:31:00,67.6,57.6,28.56,North,0,0.0,0.0,70,0.00,,,0.00,meteohub,2013-09-04 10:31:00,
2013-09-04 05:36:00,67.6,57.6,28.56,NW,315,1.0,1.0,70,0.00,,,0.00,meteohub,2013-09-04 10:36:00,
2013-09-04 05:41:00,67.6,57.9,28.57,NW,315,1.0,1.0,71,0.00,,,0.00,meteohub,2013-09-04 10:41:00,
2013-09-04 05:46:00,68.0,57.9,28.56,North,0,0.0,1.0,70,0.00,,,0.00,meteohub,2013-09-04 10:46:00,
2013-09-04 05:51:00,68.0,57.4,28.57,North,0,1.0,2.0,69,0.00,,,0.00,meteohub,2013-09-04 10:51:00,
2013-09-04 05:56:00,67.8,57.2,28.57,NW,315,1.0,2.0,69,0.00,,,0.00,meteohub,2013-09-04 10:56:00,
2013-09-04 06:01:00,67.8,57.2,28.57,NW,315,1.0,2.0,69,0.00,,,0.00,meteohub,2013-09-04 11:01:00,
2013-09-04 06:06:00,68.0,57.4,28.57,NW,315,1.0,1.0,69,0.00,,,0.00,meteohub,2013-09-04 11:06:00,
2013-09-04 06:11:00,67.8,57.2,28.58,North,0,0.0,1.0,69,0.00,,,0.00,meteohub,2013-09-04 11:11:00,
2013-09-04 06:16:00,67.8,57.2,28.57,West,270,0.0,1.0,69,0.00,,,0.00,meteohub,2013-09-04 11:16:00,
2013-09-04 06:21:00,67.5,57.0,28.58,NW,315,0.0,1.0,69,0.00,,,0.00,meteohub,2013-09-04 11:21:00,
2013-09-04 06:26:00,67.1,57.0,28.58,North,0,0.0,1.0,70,0.00,,,0.00,meteohub,2013-09-04 11:26:00,
2013-09-04 06:31:00,67.1,57.0,28.58,North,0,1.0,1.0,70,0.00,,,0.00,meteohub,2013-09-04 11:31:00,
2013-09-04 06:36:00,66.9,56.8,28.58,NW,315,0.0,1.0,70,0.00,,,0.00,meteohub,2013-09-04 11:36:00,
2013-09-04 06:41:00,66.7,56.7,28.58,NW,315,1.0,1.0,70,0.00,,,0.00,meteohub,2013-09-04 11:41:00,
2013-09-04 06:46:00,66.7,56.7,28.58,North,0,0.0,1.0,70,0.00,,,0.00,meteohub,2013-09-04 11:46:00,
2013-09-04 06:51:00,66.9,56.8,28.58,NW,315,0.0,2.0,70,0.00,,,0.00,meteohub,2013-09-04 11:51:00,
2013-09-04 06:56:00,66.9,57.2,28.58,North,0,1.0,2.0,71,0.00,,,0.00,meteohub,2013-09-04 11:56:00,
2013-09-04 07:01:00,66.9,56.8,28.58,NW,315,1.0,2.0,70,0.00,,,0.00,meteohub,2013-09-04 12:01:00,
2013-09-04 07:06:00,66.9,57.2,28.59,North,0,1.0,1.0,71,0.00,,,0.00,meteohub,2013-09-04 12:06:00,
2013-09-04 07:11:00,66.6,56.8,28.59,North,0,1.0,1.0,71,0.00,,,0.00,meteohub,2013-09-04 12:11:00,
2013-09-04 07:16:00,66.7,57.4,28.59,North,0,0.0,1.0,72,0.00,,,0.00,meteohub,2013-09-04 12:16:00,
2013-09-04 07:21:00,66.7,57.4,28.59,North,0,1.0,1.0,72,0.00,,,0.00,meteohub,2013-09-04 12:21:00,
2013-09-04 07:26:00,67.1,57.7,28.59,North,0,1.0,1.0,72,0.00,,,0.00,meteohub,2013-09-04 12:26:00,
2013-09-04 07:31:00,67.6,58.3,28.59,North,0,1.0,1.0,72,0.00,,,0.00,meteohub,2013-09-04 12:31:00,
2013-09-04 07:36:00,68.0,58.3,28.60,North,0,1.0,1.0,71,0.00,,,0.00,meteohub,2013-09-04 12:36:00,
2013-09-04 07:41:00,68.2,58.5,28.60,North,0,1.0,1.0,71,0.00,,,0.00,meteohub,2013-09-04 12:41:00,
2013-09-04 07:46:00,68.5,58.3,28.60,North,0,0.0,1.0,70,0.00,,,0.00,meteohub,2013-09-04 12:46:00,
2013-09-04 07:51:00,68.4,58.3,28.61,North,0,1.0,1.0,70,0.00,,,0.00,meteohub,2013-09-04 12:51:00,
2013-09-04 07:56:00,68.7,58.5,28.61,North,0,1.0,1.0,70,0.00,,,0.00,meteohub,2013-09-04 12:56:00,
2013-09-04 08:01:00,69.1,58.8,28.61,North,0,0.0,1.0,70,0.00,,,0.00,meteohub,2013-09-04 13:01:00,
2013-09-04 08:06:00,69.4,58.8,28.61,North,0,1.0,1.0,69,0.00,,,0.00,meteohub,2013-09-04 13:06:00,
2013-09-04 08:11:00,69.8,59.2,28.61,North,0,0.0,1.0,69,0.00,,,0.00,meteohub,2013-09-04 13:11:00,
2013-09-04 08:16:00,70.0,59.0,28.60,NW,315,0.0,1.0,68,0.00,,,0.00,meteohub,2013-09-04 13:16:00,
2013-09-04 08:21:00,70.3,59.4,28.61,NW,315,1.0,1.0,68,0.00,,,0.00,meteohub,2013-09-04 13:21:00,
2013-09-04 08:26:00,71.1,59.2,28.61,NE,45,1.0,1.0,66,0.00,,,0.00,meteohub,2013-09-04 13:26:00,
2013-09-04 08:31:00,72.0,59.5,28.61,North,0,1.0,1.0,65,0.00,,,0.00,meteohub,2013-09-04 13:31:00,
2013-09-04 08:36:00,72.5,59.5,28.61,North,0,1.0,1.0,64,0.00,,,0.00,meteohub,2013-09-04 13:36:00,
2013-09-04 08:41:00,73.2,59.9,28.61,NE,45,1.0,1.0,63,0.00,,,0.00,meteohub,2013-09-04 13:41:00,
2013-09-04 08:46:00,73.9,60.1,28.61,North,0,1.0,2.0,62,0.00,,,0.00,meteohub,2013-09-04 13:46:00,
2013-09-04 08:51:00,74.8,60.4,28.61,NW,315,1.0,2.0,61,0.00,,,0.00,meteohub,2013-09-04 13:51:00,
2013-09-04 08:56:00,75.4,60.1,28.61,NW,315,0.0,1.0,59,0.00,,,0.00,meteohub,2013-09-04 13:56:00,
2013-09-04 09:01:00,75.6,60.3,28.61,North,0,1.0,2.0,59,0.00,,,0.00,meteohub,2013-09-04 14:01:00,
2013-09-04 09:06:00,76.1,60.3,28.61,North,0,0.0,2.0,58,0.00,,,0.00,meteohub,2013-09-04 14:06:00,
2013-09-04 09:11:00,76.8,61.0,28.61,NE,45,1.0,2.0,58,0.00,,,0.00,meteohub,2013-09-04 14:11:00,
2013-09-04 09:16:00,77.4,61.0,28.61,East,90,0.0,2.0,57,0.00,,,0.00,meteohub,2013-09-04 14:16:00,
2013-09-04 09:21:00,78.3,60.8,28.61,NW,315,1.0,1.0,55,0.00,,,0.00,meteohub,2013-09-04 14:21:00,
2013-09-04 09:26:00,78.6,61.2,28.61,NW,315,1.0,3.0,55,0.00,,,0.00,meteohub,2013-09-04 14:26:00,
2013-09-04 09:31:00,79.3,61.7,28.61,NE,45,2.0,3.0,55,0.00,,,0.00,meteohub,2013-09-04 14:31:00,
2013-09-04 09:36:00,80.1,61.9,28.61,East,90,1.0,3.0,54,0.00,,,0.00,meteohub,2013-09-04 14:36:00,
2013-09-04 09:41:00,80.8,62.1,28.62,East,90,0.0,2.0,53,0.00,,,0.00,meteohub,2013-09-04 14:41:00,
2013-09-04 09:46:00,81.5,61.7,28.61,NE,45,1.0,2.0,51,0.00,,,0.00,meteohub,2013-09-04 14:46:00,
2013-09-04 09:51:00,82.2,62.8,28.61,East,90,1.0,1.0,52,0.00,,,0.00,meteohub,2013-09-04 14:51:00,
2013-09-04 09:56:00,82.9,62.4,28.62,East,90,1.0,1.0,50,0.00,,,0.00,meteohub,2013-09-04 14:56:00,
2013-09-04 10:01:00,83.3,62.1,28.62,North,0,1.0,1.0,49,0.00,,,0.00,meteohub,2013-09-04 15:01:00,
2013-09-04 10:06:00,83.1,62.6,28.62,East,90,1.0,2.0,50,0.00,,,0.00,meteohub,2013-09-04 15:06:00,
2013-09-04 10:11:00,84.0,62.8,28.62,East,90,1.0,4.0,49,0.00,,,0.00,meteohub,2013-09-04 15:11:00,
2013-09-04 10:16:00,84.9,62.4,28.62,North,0,1.0,4.0,47,0.00,,,0.00,meteohub,2013-09-04 15:16:00,
2013-09-04 10:21:00,85.3,62.8,28.63,North,0,1.0,3.0,47,0.00,,,0.00,meteohub,2013-09-04 15:21:00,
2013-09-04 10:26:00,85.8,62.6,28.63,SE,135,1.0,2.0,46,0.00,,,0.00,meteohub,2013-09-04 15:26:00,